Location: Zagreb
(45.8000°N, 16.0000°E)
Time: 08:44:38
(UTC+02:00)

Courier 1B - Pass Details

Date: 18 August 2020
Orbit: 962 x 1209 km, 28.3° (Epoch: 27 September)

Event Time Altitude Azimuth Distance (km) Brightness Sun altitude
Rises 17:33:00 0° 234° (SW) 4,101 11.7 24.2°
Reaches altitude 10° 17:36:45 10° 218° (SW) 3,125 10.9 23.6°
Maximum altitude 17:42:01 20° 176° (S) 2,431 9.7 22.6°
Drops below altitude 10° 17:47:09 10° 132° (SE) 3,043 9.8 21.7°
Sets 17:50:44 0° 117° (ESE) 3,962 10.2 21.1°
